Location: ??????
(33.3472°N, 35.4764°E)
Time: 19:27:19
(UTC+00:00)

OAO 1 - Pass Details

Date: 21 August 2019
Orbit: 773 x 784 km, 35.0° (Epoch: 14 October)

Event Time Altitude Azimuth Distance (km) Brightness Sun altitude
Exits shadow 01:23:41 37° 267° (W) 1,181 5.0 -20.2°
Maximum altitude 01:25:43 64° 200° (SSW) 853 4.5 -19.8°
Drops below altitude 10° 01:31:08 10° 120° (ESE) 2,312 7.4 -18.8°
Sets 01:33:37 0° 117° (ESE) 3,236 8.2 -18.4°
